Location: Central Falls
(41.8900°N, 71.3929°W)
Time: 11:22:14
(UTC+00:00)

A-11 Canister half - Pass Details

Date: 08 December 2023
Orbit: 1512 x 1687 km, 47.2° (Epoch: 20 February)

Event Time Altitude Azimuth Distance (km) Brightness Sun altitude
Rises 08:47:36 0° 292° (WNW) 4,818 - -35.0°
Reaches altitude 10° 08:50:41 10° 293° (WNW) 3,854 - -34.5°
Exits shadow 08:58:45 64° 308° (NW) 1,798 9.0 -33.0°
Maximum altitude 09:00:38 83° 22° (NNE) 1,677 9.0 -32.6°
Drops below altitude 10° 09:10:51 10° 111° (ESE) 3,945 12.0 -30.7°
Sets 09:14:02 0° 112° (ESE) 4,936 12.7 -30.1°
